Terug naar catalogus

EGYPTSAT 2

ActiefWetenschapLEO
NORAD 39678·PAYLOAD·🇪🇬 Egypt

Gelanceerd Apr 16, 2014 vanaf Baikonur Cosmodrome

Loading…

Volgende Passages (komende 24 uur)

TLE

VersSource: Space-Track

Epoch: Sep 14, 2026, 09:14 UTC

1 39678U 14021A   26257.38483379  .00000032  00000-0  47952-4 0  9994
2 39678  51.6171 149.6263 0000571 122.2526 237.8477 14.56099240656218

Volg EGYPTSAT 2 in realtime met AllMySat

Download on the App Store